Location: Marcé
(47.5801°N, 0.3280°W)
Time: 18:07:08
(UTC+01:00)

Vanguard 2 Rocket - Pass Details

Date: 11 December 2021
Orbit: 553 x 3325 km, 32.9° (Epoch: 23 January)

Event Time Altitude Azimuth Distance (km) Brightness Sun altitude
Rises 20:33:15 0° 250° (WSW) 3,327 10.7 -33.2°
Reaches altitude 10° 20:36:03 10° 231° (SW) 2,680 9.8 -33.7°
Maximum altitude 20:40:34 20° 187° (S) 2,528 9.1 -34.4°
Enters shadow 20:41:24 19° 179° (S) 2,634 9.1 -34.6°
Drops below altitude 10° 20:46:50 10° 146° (SE) 3,903 - -35.5°
Sets 20:52:10 0° 132° (SE) 5,478 - -36.4°
